Tracking 28790 objects as of 18-Apr-2024
HD Live streaming from Space Station
objects crossing your sky now

CZ-3B DEB

Track CZ-3B DEB now!


NORAD ID: 40815
Int'l Code: 2010-042Y
Perigee: 882.4 km
Apogee: 41,257.6 km
Inclination: 26.9 °
Period: 754.0 minutes
Semi major axis: 27441 km
RCS: Unknown
Launch date: September 4, 2010
Source: People's Republic of China (PRC)
Launch site: Xichang Space Center, China (XSC)

Note: This is SATELLITE DEBRIS
Your satellite tracking list
Your tracking list is empty




NASA's NSSDC Master Catalog

Two Line Element Set (TLE):
1 40815U 10042Y   24095.66399041 -.00000341  00000-0 -10163-1 0  9995
2 40815  26.9312 347.5512 7356719 218.1909  54.8488  1.90986264 71558
Source of the keplerian elements: AFSPC